C/2007 D3 ( LINEAR )

Japanese version
Home page
Total 6,336 html files since Dec. 4, 1995
Updated on April 3, 2008

---------------------------------------------------------------------

* Profile

Discovery Date February 20, 2007
Magnitude 19.2 mag
Discoverer Lincoln Laboratory Near-Earth Asteroid Research project

* Pictures

* Orbital Elements

Epoch 2007 May 20.0 TT = JDT 2454240.5
T 2007 May 27.76954 TT                                  MPC
q   5.2090303            (2000.0)            P               Q
z  +0.0015445      Peri.  309.09887     -0.25472127     -0.89091250
 +/-0.0000088      Node   148.43460     +0.94670388     -0.15046924
e   0.9919545      Incl.   45.91614     -0.19715184     +0.42852529

* Magnitudes Graph

        m1 = 7.5 + 5 log d + 10.0 log r

---------------------------------------------------------------------

The orbital elements are published on M.P.E.C. 2007-X37.
The magnitudes graphs are made with Comet for Windows.

---------------------------------------------------------------------

Copyright(C) 1995-2008 Seiichi Yoshida (comet@aerith.net). All rights reserved.